Hourly Data Report for July 13, 2020

OTTAWA INTL A
ONTARIO
Current Station Operator: NAVCAN

45°19'00.000" N
75°40'00.000" W
114.90 m
6106001
71628
YOW

Download Data

Hourly Data (July 2020)
Hourly Data Report for July 13, 2020
TIME
LST
Temp Definition
°C
Dew Point Definition
°C
Rel Hum Definition
%
Precip. Amount Definition
mm

Wind Dir Definition
10's deg

Wind Spd Definition
km/h
Visibility Definition
km
Stn Press Definition
kPa
Hmdx Definition


Wind Chill Definition


Weather Definition


00:00 18.5 15.8 84   9 5 24.1 99.36     LegendNANA
01:00 18.7 15.7 82   2 8 24.1 99.38     Mostly Cloudy
02:00 17.1 15.2 88   4 4 24.1 99.35     LegendNANA
03:00 18.6 16.4 87   34 6 24.1 99.36     LegendNANA
04:00 19.0 16.5 85   33 11 24.1 99.41     Mostly Cloudy
05:00 17.8 16.7 94   31 5 24.1 99.45     LegendNANA
06:00 19.5 16.6 83   34 12 24.1 99.49     LegendNANA
07:00 20.8 16.3 75   36 15 24.1 99.55 26   Mainly Clear
08:00 22.7 16.9 69   2 8 24.1 99.57 28   LegendNANA
09:00 22.8 15.3 62   30 9 24.1 99.58 27   LegendNANA
10:00 23.0 15.8 64   33 11 24.1 99.59 27   Mostly Cloudy
11:00 24.3 15.8 59   27 20 24.1 99.58 29   LegendNANA
12:00 24.7 15.8 57   27 21 24.1 99.57 29   LegendNANA
13:00 26.0 15.2 51   27 21 24.1 99.56 30   Mostly Cloudy
14:00 25.1 14.5 51   34 20 24.1 99.57 29   LegendNANA
15:00 26.4 14.8 49   35 11 24.1 99.58 30   LegendNANA
16:00 24.8 14.8 53   34 24 24.1 99.61 29   Mostly Cloudy
17:00 26.6 14.7 47   34 15 24.1 99.60 30   LegendNANA
18:00 25.2 14.1 50   33 18 24.1 99.66 29   LegendNANA
19:00 23.8 15.6 60   1 15 24.1 99.72 28   Mostly Cloudy
20:00 23.0 15.6 63   1 14 24.1 99.76 27   LegendNANA
21:00 22.0 15.8 67   36 11 24.1 99.80 26   LegendNANA
22:00 19.9 15.9 78   29 5 24.1 99.84     Mostly Cloudy
23:00 21.2 16.3 73   34 11 24.1 99.86 26   LegendNANA

Notes on Data Quality.

Legend

  • E = Estimated
  • M = Missing
  • NA = Not Available*
  • [empty] = Indicates an unobserved value
Date modified: